Location: Archamps
(46.1365°N, 6.1329°E)
Time: 17:59:12
(UTC+00:00)

CZ-4B R/B - Pass Details

Date: 28 January 2023
Orbit: 809 x 881 km, 99.0° (Epoch: 29 March)

Event Time Altitude Azimuth Distance (km) Brightness Sun altitude
Rises 19:09:20 0° 185° (S) 3,317 6.3 -26.9°
Reaches altitude 10° 19:11:47 10° 193° (SSW) 2,395 5.7 -27.3°
Maximum altitude 19:16:44 40° 262° (W) 1,196 4.4 -28.1°
Drops below altitude 10° 19:21:48 10° 331° (NNW) 2,444 5.9 -29.0°
Sets 19:24:20 0° 339° (NNW) 3,394 6.6 -29.5°
